User: anonymous   Login
Location: Dover
(39.1580°N, 75.5250°W)
Time: 14:56:04
(UTC-04:00)
Language:

SeaSat 1 - Orbit

View from above orbital plane
View from above orbital plane
View from above satellite
View from above satellite

Ground track
Ground track

The orbit data is extracted from the following two-line orbital elements,

1 10967U 78064A   14302.94618517  .00000440  00000-0  17135-3 0  4251
2 10967 107.9937 092.2426 0001300 260.0119 211.9554 14.43131841907912
Epoch (UTC): 29 October 2014 22:42:30
Eccentricity: 0.0001300
inclination: 107.9937°
perigee height: 747 km
apogee height: 749 km
right ascension of ascending node: 92.2426°
argument of perigee: 260.0119°
revolutions per day: 14.43131841
mean anomaly at epoch: 211.9554°
orbit number at epoch: 90791

The dashed part of the orbit path shows where the satellite is in the earth's shadow,  

DLR